Location: Moscow
(55.7500°N, 37.5830°E)
Time: 22:54:02
(UTC+03:00)

A-11 Canister half - Pass Details

Date: 04 December 2021
Orbit: 1516 x 1684 km, 47.2° (Epoch: 16 January)

Event Time Altitude Azimuth Distance (km) Brightness Sun altitude
Rises 12:24:28 0° 276° (W) 4,867 11.6 12.0°
Reaches altitude 10° 12:27:48 10° 270° (W) 3,899 11.2 11.9°
Maximum altitude 12:36:52 41° 205° (SSW) 2,271 11.0 11.9°
Drops below altitude 10° 12:46:04 10° 140° (SE) 3,943 11.9 11.8°
Sets 12:49:27 0° 134° (SE) 4,927 12.2 11.7°
